Weather History for West Bend, WI

Change the Weather History Date:

Monday, January 7, 2013

  Actual Average Record
Temperature  
Mean Temperature 26 °F -  
Max Temperature 37 °F 23 °F 53 °F (2008)
Min Temperature 14 °F 7 °F -25 °F (1942)
Degree Days  
Heating Degree Days 40    
Moisture  
Dew Point 19 °F    
Average Humidity 70    
Maximum Humidity 93    
Minimum Humidity 52    
Precipitation  
Precipitation 0.00 in - - ()
Sea Level Pressure  
Sea Level Pressure 30.10 in    
Wind  
Wind Speed 8 mph (SSW)    
Max Wind Speed 20 mph    
Max Gust Speed 32 mph    
Visibility 10 miles    
Events      
Averages and records for this station are not official NWS values.
T = Trace of Precipitation, MM = Missing Value Source: NWS Daily Summary

Daily Weather History Graph

Daily Weather History Graph

Search for Another Location

Airport:

Trip Planner

Search our weather history database for the weather conditions in past years. The results will help you decide how hot, cold, wet, or windy it might be!

Date:

Astronomy

Jan. 07, 2013 Rise Set
Actual Time 7:24 AM CST 4:33 PM CST
Civil Twilight 6:52 AM CST 5:05 PM CST
Nautical Twilight 6:17 AM CST 5:41 PM CST
Astronomical Twilight 5:42 AM CST 6:15 PM CST
Moon 2:46 AM CST (1/7) 12:45 PM CST (1/7)
Length of Visible Light 10h 12m
Length of Day
9h 08m
Waning Crescent, 22% of the Moon is Illuminated
Jan 7
Waning Crescent
Jan 11
New
Jan 18
First Quarter
Jan 26
Full
Feb 3
Last Quarter

Hourly Weather History & Observations

Time (CST) Temp. Windchill Dew Point Humidity Pressure Visibility Wind Dir Wind Speed Gust Speed Precip Events Conditions
12:15 AM 17.6 °F - 15.8 °F 93% 30.24 in 5.0 mi Calm Calm - N/A   Clear
12:35 AM 17.6 °F 12.3 °F 15.8 °F 93% 30.24 in 4.0 mi SSW 3.5 mph - N/A   Clear
12:55 AM 17.6 °F - 14.0 °F 86% 30.24 in 7.0 mi Calm Calm - N/A   Clear
1:15 AM 15.8 °F - 14.0 °F 93% 30.23 in 7.0 mi Calm Calm - N/A   Clear
1:35 AM 14.0 °F - 12.2 °F 93% 30.23 in 5.0 mi Calm Calm - N/A   Clear
1:55 AM 14.0 °F 8.2 °F 12.2 °F 93% 30.24 in 7.0 mi SSW 3.5 mph - N/A   Clear
2:15 AM 15.8 °F 10.2 °F 12.2 °F 86% 30.24 in 10.0 mi SSW 3.5 mph - N/A   Clear
2:35 AM 15.8 °F 10.2 °F 12.2 °F 86% 30.23 in 10.0 mi SW 3.5 mph - N/A   Clear
2:55 AM 17.6 °F - 12.2 °F 79% 30.23 in 10.0 mi Calm Calm - N/A   Clear
3:15 AM 17.6 °F - 12.2 °F 79% 30.22 in 10.0 mi Calm Calm - N/A   Clear
3:35 AM 17.6 °F 12.3 °F 12.2 °F 79% 30.22 in 10.0 mi South 3.5 mph - N/A   Clear
3:55 AM 15.8 °F 8.6 °F 10.4 °F 79% 30.21 in 10.0 mi South 4.6 mph - N/A   Clear
4:15 AM 15.8 °F 7.2 °F 10.4 °F 79% 30.20 in 10.0 mi South 5.8 mph - N/A   Clear
4:35 AM 17.6 °F 8.2 °F 10.4 °F 73% 30.20 in 10.0 mi South 6.9 mph - N/A   Clear
4:55 AM 17.6 °F 9.3 °F 12.2 °F 79% 30.20 in 10.0 mi SSW 5.8 mph - N/A   Clear
5:15 AM 19.4 °F 10.4 °F 12.2 °F 74% 30.19 in 10.0 mi SSW 6.9 mph - N/A   Clear
5:35 AM 19.4 °F 9.5 °F 12.2 °F 74% 30.19 in 10.0 mi SSW 8.1 mph - N/A   Clear
5:55 AM 19.4 °F 7.9 °F 14.0 °F 80% 30.18 in 10.0 mi SSW 10.4 mph - N/A   Clear
6:15 AM 21.2 °F 8.9 °F 14.0 °F 74% 30.18 in 10.0 mi SSW 12.7 mph - N/A   Clear
7:15 AM 17.6 °F 10.7 °F 12.2 °F 79% 30.16 in 10.0 mi SSE 4.6 mph - N/A   Clear
7:35 AM 19.4 °F 10.4 °F 12.2 °F 74% 30.16 in 10.0 mi South 6.9 mph - N/A   Clear
8:15 AM 23.0 °F 13.9 °F 14.0 °F 68% 30.15 in 10.0 mi South 8.1 mph - N/A   Clear
8:35 AM 26.6 °F 15.2 °F 15.8 °F 64% 30.15 in 10.0 mi SSW 13.8 mph 19.6 mph N/A   Clear
8:55 AM 26.6 °F 16.2 °F 17.6 °F 69% 30.15 in 10.0 mi SSW 11.5 mph - N/A   Clear
9:15 AM 28.4 °F 18.5 °F 17.6 °F 64% 30.15 in 10.0 mi South 11.5 mph - N/A   Clear
9:35 AM 28.4 °F 18.0 °F 17.6 °F 64% 30.14 in 10.0 mi South 12.7 mph 16.1 mph N/A   Clear
9:55 AM 32.0 °F 21.2 °F 17.6 °F 55% 30.13 in 10.0 mi South 16.1 mph 23.0 mph N/A   Clear
10:15 AM 32.0 °F 21.6 °F 17.6 °F 55% 30.12 in 10.0 mi South 15.0 mph 27.6 mph N/A   Clear
10:35 AM 32.0 °F 21.2 °F 17.6 °F 55% 30.11 in 10.0 mi SSW 16.1 mph 26.5 mph N/A   Clear
10:55 AM 32.0 °F 22.1 °F 17.6 °F 55% 30.10 in 10.0 mi SSW 13.8 mph 20.7 mph N/A   Clear
11:15 AM 33.8 °F 24.8 °F 19.4 °F 56% 30.08 in 10.0 mi SSW 12.7 mph 18.4 mph N/A   Clear
11:35 AM 33.8 °F 22.8 °F 19.4 °F 56% 30.07 in 10.0 mi SSW 18.4 mph 21.9 mph N/A   Clear
11:55 AM 33.8 °F 23.9 °F 19.4 °F 56% 30.05 in 10.0 mi SSW 15.0 mph 23.0 mph N/A   Clear
12:15 PM 35.6 °F 25.2 °F 19.4 °F 52% 30.03 in 10.0 mi SSW 18.4 mph 25.3 mph N/A   Clear
12:55 PM 35.6 °F 24.8 °F 21.2 °F 56% 30.00 in 10.0 mi SSW 19.6 mph 32.2 mph N/A   Clear
1:15 PM 35.6 °F 25.9 °F 21.2 °F 56% 30.00 in 10.0 mi SSW 16.1 mph 23.0 mph N/A   Clear
1:35 PM 37.4 °F 27.8 °F 21.2 °F 52% 30.00 in 10.0 mi SSW 17.3 mph 23.0 mph N/A   Clear
1:55 PM 37.4 °F 27.2 °F 21.2 °F 52% 30.00 in 10.0 mi SSW 19.6 mph 25.3 mph N/A   Clear
2:15 PM 35.6 °F 25.2 °F 21.2 °F 56% 30.01 in 10.0 mi SW 18.4 mph 26.5 mph N/A   Clear
2:35 PM 35.6 °F 26.2 °F 23.0 °F 60% 30.00 in 10.0 mi SSW 15.0 mph 21.9 mph N/A   Clear
2:55 PM 37.4 °F 27.8 °F 23.0 °F 56% 30.00 in 10.0 mi SW 17.3 mph 25.3 mph N/A   Clear
3:15 PM 37.4 °F 27.5 °F 23.0 °F 56% 30.00 in 10.0 mi SW 18.4 mph 28.8 mph N/A   Clear
3:35 PM 37.4 °F 28.5 °F 23.0 °F 56% 30.00 in 10.0 mi SW 15.0 mph 21.9 mph N/A   Clear
3:55 PM 35.6 °F 26.2 °F 23.0 °F 60% 30.00 in 10.0 mi SSW 15.0 mph - N/A   Clear
4:15 PM 35.6 °F 26.6 °F 23.0 °F 60% 30.00 in 10.0 mi SSW 13.8 mph 19.6 mph N/A   Clear
4:35 PM 35.6 °F 25.5 °F 23.0 °F 60% 30.00 in 10.0 mi SSW 17.3 mph 21.9 mph N/A   Clear
4:55 PM 35.6 °F 26.2 °F 23.0 °F 60% 30.00 in 10.0 mi SSW 15.0 mph 21.9 mph N/A   Clear
5:15 PM 33.8 °F 25.3 °F 23.0 °F 65% 30.01 in 10.0 mi SSW 11.5 mph 20.7 mph N/A   Clear
5:35 PM 33.8 °F 25.8 °F 23.0 °F 65% 30.02 in 10.0 mi SSW 10.4 mph - N/A   Clear
5:55 PM 33.8 °F 24.3 °F 23.0 °F 65% 30.02 in 10.0 mi SW 13.8 mph 18.4 mph N/A   Clear
6:35 PM 33.8 °F 25.8 °F 24.8 °F 70% 30.02 in 10.0 mi SW 10.4 mph 17.3 mph N/A   Clear
6:55 PM 33.8 °F 25.3 °F 24.8 °F 70% 30.02 in 10.0 mi SW 11.5 mph - N/A   Clear
7:15 PM 33.8 °F 24.8 °F 24.8 °F 70% 30.01 in 10.0 mi SW 12.7 mph 17.3 mph N/A   Clear
8:15 PM 33.8 °F 25.8 °F 24.8 °F 70% 30.01 in 10.0 mi SW 10.4 mph - N/A   Clear
8:35 PM 33.8 °F 25.3 °F 24.8 °F 70% 30.00 in 10.0 mi SW 11.5 mph - N/A   Clear
8:55 PM 33.8 °F 24.8 °F 24.8 °F 70% 30.01 in 10.0 mi SW 12.7 mph 17.3 mph N/A   Clear
9:15 PM 33.8 °F 26.4 °F 26.6 °F 75% 30.01 in 10.0 mi SW 9.2 mph 16.1 mph N/A   Clear
9:35 PM 33.8 °F 25.8 °F 26.6 °F 75% 30.02 in 10.0 mi SW 10.4 mph - N/A   Clear
10:15 PM 33.8 °F 25.8 °F 26.6 °F 75% 30.02 in 10.0 mi SW 10.4 mph 16.1 mph N/A   Clear
11:15 PM 32.0 °F 24.8 °F 26.6 °F 80% 30.02 in 10.0 mi SW 8.1 mph - N/A   Clear
11:35 PM 32.0 °F 24.2 °F 26.6 °F 80% 30.02 in 10.0 mi SW 9.2 mph - N/A   Clear
11:55 PM 32.0 °F 24.8 °F 26.6 °F 80% 30.02 in 10.0 mi SW 8.1 mph - N/A   Clear